Terug naar catalogus

STARLINK-32013

ActiefCommunicatieVLEO
NORAD 60103·PAYLOAD·🇺🇸 United States

Gelanceerd Jun 23, 2024 vanaf Cape Canaveral Space Force Station

Loading…

Volgende Passages (komende 24 uur)

TLE

VersSource: CelesTrak SupGP

Epoch: Sep 14, 2026, 20:35 UTC

1 60103C 24117N   26257.85812500  .00044919  00000+0  13272-2 0  2576
2 60103  53.1564 236.3970 0001255  99.6360  59.7111 15.34366924    10

Volg STARLINK-32013 in realtime met AllMySat

Download on the App Store